Year,Month,Day,Hour,Minute,Value (Times are PST for temperature in C)
2016,06,14,00,00,10.60
2016,06,14,00,01,10.50
2016,06,14,00,02,10.50
2016,06,14,00,03,10.40
2016,06,14,00,04,10.30
2016,06,14,00,05,10.30
2016,06,14,00,06,10.20
2016,06,14,00,07,10.10
2016,06,14,00,08,10.10
2016,06,14,00,09,10.10
2016,06,14,00,10,10.00
2016,06,14,00,11,10.00
2016,06,14,00,12,10.00
2016,06,14,00,13,10.00
2016,06,14,00,14,10.00
2016,06,14,00,15,10.00
2016,06,14,00,16,10.00
2016,06,14,00,17,10.00
2016,06,14,00,18,10.00
2016,06,14,00,19,10.10
2016,06,14,00,20,10.10
2016,06,14,00,21,10.10
2016,06,14,00,22,10.00
2016,06,14,00,23,10.00
2016,06,14,00,24,9.90
2016,06,14,00,25,9.90
2016,06,14,00,26,9.80
2016,06,14,00,27,9.80
2016,06,14,00,28,9.80
2016,06,14,00,29,9.70
2016,06,14,00,30,9.70
2016,06,14,00,31,9.70
2016,06,14,00,32,9.60
2016,06,14,00,33,9.60
2016,06,14,00,34,9.60
2016,06,14,00,35,9.60
2016,06,14,00,36,9.60
2016,06,14,00,37,9.60
2016,06,14,00,38,9.60
2016,06,14,00,39,9.50
2016,06,14,00,40,9.50
2016,06,14,00,41,9.40
2016,06,14,00,42,9.40
2016,06,14,00,43,9.40
2016,06,14,00,44,9.30
2016,06,14,00,45,9.30
2016,06,14,00,46,9.30
2016,06,14,00,47,9.30
2016,06,14,00,48,9.20
2016,06,14,00,49,9.20
2016,06,14,00,50,9.20
2016,06,14,00,51,9.10
2016,06,14,00,52,9.10
2016,06,14,00,53,9.10
2016,06,14,00,54,9.10
2016,06,14,00,55,9.00
2016,06,14,00,56,9.00
2016,06,14,00,57,8.90
2016,06,14,00,58,8.90
2016,06,14,00,59,8.90
2016,06,14,01,00,8.90
2016,06,14,01,01,8.80
2016,06,14,01,02,8.80
2016,06,14,01,03,8.80
2016,06,14,01,04,8.80
2016,06,14,01,05,8.80
2016,06,14,01,06,8.70
2016,06,14,01,07,8.70
2016,06,14,01,08,8.70
2016,06,14,01,09,8.70
2016,06,14,01,10,8.80
2016,06,14,01,11,8.80
2016,06,14,01,12,8.90
2016,06,14,01,13,8.90
2016,06,14,01,14,9.00
2016,06,14,01,15,9.00
2016,06,14,01,16,9.10
2016,06,14,01,17,9.10
2016,06,14,01,18,9.10
2016,06,14,01,19,9.00
2016,06,14,01,20,9.00
2016,06,14,01,21,8.90
2016,06,14,01,22,8.90
2016,06,14,01,23,8.90
2016,06,14,01,24,8.80
2016,06,14,01,25,8.80
2016,06,14,01,26,8.80
2016,06,14,01,27,8.80
2016,06,14,01,28,8.80
2016,06,14,01,29,8.70
2016,06,14,01,30,8.70
2016,06,14,01,31,8.70
2016,06,14,01,32,8.70
2016,06,14,01,33,8.70
2016,06,14,01,34,8.70
2016,06,14,01,35,8.70
2016,06,14,01,36,8.70
2016,06,14,01,37,8.60
2016,06,14,01,38,8.60
2016,06,14,01,39,8.60
2016,06,14,01,40,8.60
2016,06,14,01,41,8.60
2016,06,14,01,42,8.60
2016,06,14,01,43,8.60
2016,06,14,01,44,8.60
2016,06,14,01,45,8.60
2016,06,14,01,46,8.60
2016,06,14,01,47,8.60
2016,06,14,01,48,8.70
2016,06,14,01,49,8.70
2016,06,14,01,50,8.60
2016,06,14,01,51,8.60
2016,06,14,01,52,8.60
2016,06,14,01,53,8.60
2016,06,14,01,54,8.60
2016,06,14,01,55,8.60
2016,06,14,01,56,8.60
2016,06,14,01,57,8.50
2016,06,14,01,58,8.50
2016,06,14,01,59,8.50
2016,06,14,02,00,8.40
2016,06,14,02,01,8.40
2016,06,14,02,02,8.40
2016,06,14,02,03,8.40
2016,06,14,02,04,8.40
2016,06,14,02,05,8.40
2016,06,14,02,06,8.40
2016,06,14,02,07,8.30
2016,06,14,02,08,8.30
2016,06,14,02,09,8.30
2016,06,14,02,10,8.30
2016,06,14,02,11,8.30
2016,06,14,02,12,8.30
2016,06,14,02,13,8.20
2016,06,14,02,14,8.20
2016,06,14,02,15,8.20
2016,06,14,02,16,8.20
2016,06,14,02,17,8.20
2016,06,14,02,18,8.20
2016,06,14,02,19,8.10
2016,06,14,02,20,8.10
2016,06,14,02,21,8.10
2016,06,14,02,22,8.00
2016,06,14,02,23,8.00
2016,06,14,02,24,8.00
2016,06,14,02,25,7.90
2016,06,14,02,26,7.90
2016,06,14,02,27,7.90
2016,06,14,02,28,7.90
2016,06,14,02,29,7.90
2016,06,14,02,30,7.90
2016,06,14,02,31,7.90
2016,06,14,02,32,7.80
2016,06,14,02,33,7.80
2016,06,14,02,34,7.80
2016,06,14,02,35,7.80
2016,06,14,02,36,7.80
2016,06,14,02,37,7.80
2016,06,14,02,38,7.80
2016,06,14,02,39,7.80
2016,06,14,02,40,7.80
2016,06,14,02,41,7.70
2016,06,14,02,42,7.70
2016,06,14,02,43,7.60
2016,06,14,02,44,7.60
2016,06,14,02,45,7.50
2016,06,14,02,46,7.50
2016,06,14,02,47,7.40
2016,06,14,02,48,7.40
2016,06,14,02,49,7.40
2016,06,14,02,50,7.30
2016,06,14,02,51,7.30
2016,06,14,02,52,7.30
2016,06,14,02,53,7.30
2016,06,14,02,54,7.30
2016,06,14,02,55,7.30
2016,06,14,02,56,7.20
2016,06,14,02,57,7.20
2016,06,14,02,58,7.20
2016,06,14,02,59,7.20
2016,06,14,03,00,7.20
2016,06,14,03,01,7.20
2016,06,14,03,02,7.20
2016,06,14,03,03,7.10
2016,06,14,03,04,7.10
2016,06,14,03,05,7.10
2016,06,14,03,06,7.10
2016,06,14,03,07,7.10
2016,06,14,03,08,7.10
2016,06,14,03,09,7.10
2016,06,14,03,10,7.10
2016,06,14,03,11,7.10
2016,06,14,03,12,7.10
2016,06,14,03,13,7.10
2016,06,14,03,14,7.10
2016,06,14,03,15,7.10
2016,06,14,03,16,7.10
2016,06,14,03,17,7.10
2016,06,14,03,18,7.10
2016,06,14,03,19,7.10
2016,06,14,03,20,7.10
2016,06,14,03,21,7.10
2016,06,14,03,22,7.10
2016,06,14,03,23,7.10
2016,06,14,03,24,7.20
2016,06,14,03,25,7.20
2016,06,14,03,26,7.20
2016,06,14,03,27,7.20
2016,06,14,03,28,7.20
2016,06,14,03,29,7.20
2016,06,14,03,30,7.20
2016,06,14,03,31,7.20
2016,06,14,03,32,7.20
2016,06,14,03,33,7.20
2016,06,14,03,34,7.20
2016,06,14,03,35,7.20
2016,06,14,03,36,7.20
2016,06,14,03,37,7.20
2016,06,14,03,38,7.20
2016,06,14,03,39,7.20
2016,06,14,03,40,7.20
2016,06,14,03,41,7.20
2016,06,14,03,42,7.20
2016,06,14,03,43,7.20
2016,06,14,03,44,7.20
2016,06,14,03,45,7.20
2016,06,14,03,46,7.20
2016,06,14,03,47,7.20
2016,06,14,03,48,7.20
2016,06,14,03,49,7.30
2016,06,14,03,50,7.30
2016,06,14,03,51,7.30
2016,06,14,03,52,7.20
2016,06,14,03,53,7.20
2016,06,14,03,54,7.20
2016,06,14,03,55,7.20
2016,06,14,03,56,7.20
2016,06,14,03,57,7.20
2016,06,14,03,58,7.10
2016,06,14,03,59,7.10
2016,06,14,04,00,7.10
2016,06,14,04,01,7.00
2016,06,14,04,02,7.00
2016,06,14,04,03,7.00
2016,06,14,04,04,6.90
2016,06,14,04,05,6.90
2016,06,14,04,06,6.90
2016,06,14,04,07,6.90
2016,06,14,04,08,6.90
2016,06,14,04,09,6.90
2016,06,14,04,10,6.90
2016,06,14,04,11,6.90
2016,06,14,04,12,6.90
2016,06,14,04,13,6.90
2016,06,14,04,14,6.90
2016,06,14,04,15,6.90
2016,06,14,04,16,6.90
2016,06,14,04,17,6.80
2016,06,14,04,18,6.80
2016,06,14,04,19,6.80
2016,06,14,04,20,6.80
2016,06,14,04,21,6.80
2016,06,14,04,22,6.80
2016,06,14,04,23,6.80
2016,06,14,04,24,6.80
2016,06,14,04,25,6.80
2016,06,14,04,26,6.80
2016,06,14,04,27,6.80
2016,06,14,04,28,6.80
2016,06,14,04,29,6.80
2016,06,14,04,30,6.80
2016,06,14,04,31,6.80
2016,06,14,04,32,6.80
2016,06,14,04,33,6.80
2016,06,14,04,34,6.80
2016,06,14,04,35,6.80
2016,06,14,04,36,6.80
2016,06,14,04,37,6.80
2016,06,14,04,38,6.80
2016,06,14,04,39,6.80
2016,06,14,04,40,6.80
2016,06,14,04,41,6.80
2016,06,14,04,42,6.80
2016,06,14,04,43,6.80
2016,06,14,04,44,6.80
2016,06,14,04,45,6.80
2016,06,14,04,46,6.80
2016,06,14,04,47,6.80
2016,06,14,04,48,6.80
2016,06,14,04,49,6.80
2016,06,14,04,50,6.80
2016,06,14,04,51,6.80
2016,06,14,04,52,6.80
2016,06,14,04,53,6.80
2016,06,14,04,54,6.80
2016,06,14,04,55,6.80
2016,06,14,04,56,6.80
2016,06,14,04,57,6.70
2016,06,14,04,58,6.70
2016,06,14,04,59,6.80
2016,06,14,05,00,6.80
2016,06,14,05,01,6.80
2016,06,14,05,02,6.80
2016,06,14,05,03,6.80
2016,06,14,05,04,6.80
2016,06,14,05,05,6.80
2016,06,14,05,06,6.80
2016,06,14,05,07,6.80
2016,06,14,05,08,6.80
2016,06,14,05,09,6.80
2016,06,14,05,10,6.80
2016,06,14,05,11,6.80
2016,06,14,05,12,6.80
2016,06,14,05,13,6.80
2016,06,14,05,14,6.80
2016,06,14,05,15,6.80
2016,06,14,05,16,6.80
2016,06,14,05,17,6.80
2016,06,14,05,18,6.80
2016,06,14,05,19,6.80
2016,06,14,05,20,6.80
2016,06,14,05,21,6.80
2016,06,14,05,22,6.80
2016,06,14,05,23,6.80
2016,06,14,05,24,6.80
2016,06,14,05,25,6.80
2016,06,14,05,26,6.80
2016,06,14,05,27,6.80
2016,06,14,05,28,6.80
2016,06,14,05,29,6.80
2016,06,14,05,30,6.80
2016,06,14,05,31,6.80
2016,06,14,05,32,6.80
2016,06,14,05,33,6.80
2016,06,14,05,34,6.90
2016,06,14,05,35,6.90
2016,06,14,05,36,6.90
2016,06,14,05,37,6.90
2016,06,14,05,38,6.90
2016,06,14,05,39,6.90
2016,06,14,05,40,6.90
2016,06,14,05,41,6.90
2016,06,14,05,42,6.90
2016,06,14,05,43,6.90
2016,06,14,05,44,6.90
2016,06,14,05,45,6.90
2016,06,14,05,46,6.90
2016,06,14,05,47,6.90
2016,06,14,05,48,6.90
2016,06,14,05,49,6.90
2016,06,14,05,50,6.90
2016,06,14,05,51,6.90
2016,06,14,05,52,6.90
2016,06,14,05,53,6.90
2016,06,14,05,54,6.90
2016,06,14,05,55,7.00
2016,06,14,05,56,7.00
2016,06,14,05,57,7.00
2016,06,14,05,58,7.00
2016,06,14,05,59,6.90
2016,06,14,06,00,6.90
2016,06,14,06,01,7.00
2016,06,14,06,02,7.00
2016,06,14,06,03,7.00
2016,06,14,06,04,7.00
2016,06,14,06,05,7.00
2016,06,14,06,06,7.00
2016,06,14,06,07,7.00
2016,06,14,06,08,7.00
2016,06,14,06,09,7.00
2016,06,14,06,10,7.00
2016,06,14,06,11,7.10
2016,06,14,06,12,7.10
2016,06,14,06,13,7.10
2016,06,14,06,14,7.20
2016,06,14,06,15,7.20
2016,06,14,06,16,7.20
2016,06,14,06,17,7.20
2016,06,14,06,18,7.20
2016,06,14,06,19,7.20
2016,06,14,06,20,7.20
2016,06,14,06,21,7.30
2016,06,14,06,22,7.30
2016,06,14,06,23,7.30
2016,06,14,06,24,7.40
2016,06,14,06,25,7.40
2016,06,14,06,26,7.40
2016,06,14,06,27,7.40
2016,06,14,06,28,7.50
2016,06,14,06,29,7.50
2016,06,14,06,30,7.50
2016,06,14,06,31,7.50
2016,06,14,06,32,7.60
2016,06,14,06,33,7.60
2016,06,14,06,34,7.60
2016,06,14,06,35,7.70
2016,06,14,06,36,7.70
2016,06,14,06,37,7.80
2016,06,14,06,38,7.80
2016,06,14,06,39,7.80
2016,06,14,06,40,7.80
2016,06,14,06,41,7.90
2016,06,14,06,42,7.90
2016,06,14,06,43,7.90
2016,06,14,06,44,7.90
2016,06,14,06,45,8.00
2016,06,14,06,46,8.00
2016,06,14,06,47,8.10
2016,06,14,06,48,8.10
2016,06,14,06,49,8.20
2016,06,14,06,50,8.20
2016,06,14,06,51,8.20
2016,06,14,06,52,8.30
2016,06,14,06,53,8.30
2016,06,14,06,54,8.30
2016,06,14,06,55,8.40
2016,06,14,06,56,8.40
2016,06,14,06,57,8.50
2016,06,14,06,58,8.60
2016,06,14,06,59,8.60
2016,06,14,07,00,8.60
2016,06,14,07,01,8.70
2016,06,14,07,02,8.70
2016,06,14,07,03,8.70
2016,06,14,07,04,8.80
2016,06,14,07,05,8.80
2016,06,14,07,06,8.80
2016,06,14,07,07,8.80
2016,06,14,07,08,8.90
2016,06,14,07,09,8.90
2016,06,14,07,10,8.90
2016,06,14,07,11,8.90
2016,06,14,07,12,8.90
2016,06,14,07,13,8.90
2016,06,14,07,14,8.90
2016,06,14,07,15,9.00
2016,06,14,07,16,9.00
2016,06,14,07,17,9.00
2016,06,14,07,18,9.00
2016,06,14,07,19,9.00
2016,06,14,07,20,9.00
2016,06,14,07,21,9.10
2016,06,14,07,22,9.10
2016,06,14,07,23,9.10
2016,06,14,07,24,9.10
2016,06,14,07,25,9.10
2016,06,14,07,26,9.20
2016,06,14,07,27,9.20
2016,06,14,07,28,9.20
2016,06,14,07,29,9.20
2016,06,14,07,30,9.30
2016,06,14,07,31,9.30
2016,06,14,07,32,9.30
2016,06,14,07,33,9.30
2016,06,14,07,34,9.40
2016,06,14,07,35,9.40
2016,06,14,07,36,9.40
2016,06,14,07,37,9.50
2016,06,14,07,38,9.50
2016,06,14,07,39,9.60
2016,06,14,07,40,9.60
2016,06,14,07,41,9.60
2016,06,14,07,42,9.70
2016,06,14,07,43,9.70
2016,06,14,07,44,9.80
2016,06,14,07,45,9.80
2016,06,14,07,46,9.90
2016,06,14,07,47,10.00
2016,06,14,07,48,10.00
2016,06,14,07,49,10.10
2016,06,14,07,50,10.10
2016,06,14,07,51,10.20
2016,06,14,07,52,10.20
2016,06,14,07,53,10.20
2016,06,14,07,54,10.20
2016,06,14,07,55,10.30
2016,06,14,07,56,10.30
2016,06,14,07,57,10.40
2016,06,14,07,58,10.40
2016,06,14,07,59,10.50
2016,06,14,08,00,10.60
2016,06,14,08,01,10.60
2016,06,14,08,02,10.70
2016,06,14,08,03,10.70
2016,06,14,08,04,10.80
2016,06,14,08,05,10.80
2016,06,14,08,06,10.90
2016,06,14,08,07,10.90
2016,06,14,08,08,11.00
2016,06,14,08,09,11.10
2016,06,14,08,10,11.10
2016,06,14,08,11,11.10
2016,06,14,08,12,11.20
2016,06,14,08,13,11.20
2016,06,14,08,14,11.20
2016,06,14,08,15,11.20
2016,06,14,08,16,11.20
2016,06,14,08,17,11.20
2016,06,14,08,18,11.20
2016,06,14,08,19,11.20
2016,06,14,08,20,11.20
2016,06,14,08,21,11.20
2016,06,14,08,22,11.20
2016,06,14,08,23,11.20
2016,06,14,08,24,11.30
2016,06,14,08,25,11.30
2016,06,14,08,26,11.30
2016,06,14,08,27,11.30
2016,06,14,08,28,11.30
2016,06,14,08,29,11.30
2016,06,14,08,30,11.40
2016,06,14,08,31,11.40
2016,06,14,08,32,11.40
2016,06,14,08,33,11.40
2016,06,14,08,34,11.50
2016,06,14,08,35,11.50
2016,06,14,08,36,11.40
2016,06,14,08,37,11.40
2016,06,14,08,38,11.50
2016,06,14,08,39,11.50
2016,06,14,08,40,11.60
2016,06,14,08,41,11.60
2016,06,14,08,42,11.60
2016,06,14,08,43,11.70
2016,06,14,08,44,11.80
2016,06,14,08,45,11.90
2016,06,14,08,46,12.00
2016,06,14,08,47,12.10
2016,06,14,08,48,12.20
2016,06,14,08,49,12.30
2016,06,14,08,50,12.50
2016,06,14,08,51,12.60
2016,06,14,08,52,12.70
2016,06,14,08,53,12.80
2016,06,14,08,54,12.90
2016,06,14,08,55,12.90
2016,06,14,08,56,12.90
2016,06,14,08,57,12.90
2016,06,14,08,58,12.90
2016,06,14,08,59,12.90
2016,06,14,09,00,13.00
2016,06,14,09,01,13.10
2016,06,14,09,02,13.10
2016,06,14,09,03,13.20
2016,06,14,09,04,13.20
2016,06,14,09,05,13.10
2016,06,14,09,06,13.10
2016,06,14,09,07,13.10
2016,06,14,09,08,13.00
2016,06,14,09,09,12.90
2016,06,14,09,10,12.90
2016,06,14,09,11,12.90
2016,06,14,09,12,12.80
2016,06,14,09,13,12.70
2016,06,14,09,14,12.50
2016,06,14,09,15,12.40
2016,06,14,09,16,12.30
2016,06,14,09,17,12.20
2016,06,14,09,18,12.20
2016,06,14,09,19,12.10
2016,06,14,09,20,12.10
2016,06,14,09,21,12.10
2016,06,14,09,22,12.10
2016,06,14,09,23,12.10
2016,06,14,09,24,12.00
2016,06,14,09,25,12.00
2016,06,14,09,26,11.90
2016,06,14,09,27,11.90
2016,06,14,09,28,11.90
2016,06,14,09,29,11.80
2016,06,14,09,30,11.80
2016,06,14,09,31,11.70
2016,06,14,09,32,11.70
2016,06,14,09,33,11.60
2016,06,14,09,34,11.60
2016,06,14,09,35,11.60
2016,06,14,09,36,11.50
2016,06,14,09,37,11.50
2016,06,14,09,38,11.40
2016,06,14,09,39,11.40
2016,06,14,09,40,11.40
2016,06,14,09,41,11.40
2016,06,14,09,42,11.40
2016,06,14,09,43,11.40
2016,06,14,09,44,11.40
2016,06,14,09,45,11.30
2016,06,14,09,46,11.30
2016,06,14,09,47,11.30
2016,06,14,09,48,11.20
2016,06,14,09,49,11.20
2016,06,14,09,50,11.20
2016,06,14,09,51,11.10
2016,06,14,09,52,11.00
2016,06,14,09,53,11.00
2016,06,14,09,54,10.90
2016,06,14,09,55,10.90
2016,06,14,09,56,10.80
2016,06,14,09,57,10.70
2016,06,14,09,58,10.60
2016,06,14,09,59,10.60
2016,06,14,10,00,10.50
2016,06,14,10,01,10.40
2016,06,14,10,02,10.30
2016,06,14,10,03,10.30
2016,06,14,10,04,10.30
2016,06,14,10,05,10.20
2016,06,14,10,06,10.10
2016,06,14,10,07,10.10
2016,06,14,10,08,10.10
2016,06,14,10,09,10.10
2016,06,14,10,10,10.10
2016,06,14,10,11,10.10
2016,06,14,10,12,10.10
2016,06,14,10,13,10.10
2016,06,14,10,14,10.20
2016,06,14,10,15,10.10
2016,06,14,10,16,10.20
2016,06,14,10,17,10.20
2016,06,14,10,18,10.20
2016,06,14,10,19,10.30
2016,06,14,10,20,10.30
2016,06,14,10,21,10.40
2016,06,14,10,22,10.40
2016,06,14,10,23,10.40
2016,06,14,10,24,10.40
2016,06,14,10,25,10.40
2016,06,14,10,26,10.40
2016,06,14,10,27,10.40
2016,06,14,10,28,10.50
2016,06,14,10,29,10.50
2016,06,14,10,30,10.50
2016,06,14,10,31,10.50
2016,06,14,10,32,10.40
2016,06,14,10,33,10.40
2016,06,14,10,34,10.40
2016,06,14,10,35,10.40
2016,06,14,10,36,10.50
2016,06,14,10,37,10.50
2016,06,14,10,38,10.50
2016,06,14,10,39,10.60
2016,06,14,10,40,10.60
2016,06,14,10,41,10.70
2016,06,14,10,42,10.60
2016,06,14,10,43,10.60
2016,06,14,10,44,10.70
2016,06,14,10,45,10.80
2016,06,14,10,46,10.80
2016,06,14,10,47,10.80
2016,06,14,10,48,10.90
2016,06,14,10,49,11.00
2016,06,14,10,50,11.10
2016,06,14,10,51,11.20
2016,06,14,10,52,11.30
2016,06,14,10,53,11.30
2016,06,14,10,54,11.40
2016,06,14,10,55,11.40
2016,06,14,10,56,11.40
2016,06,14,10,57,11.40
2016,06,14,10,58,11.50
2016,06,14,10,59,11.60
2016,06,14,11,00,11.60
2016,06,14,11,01,11.70
2016,06,14,11,02,11.70
2016,06,14,11,03,11.70
2016,06,14,11,04,11.60
2016,06,14,11,05,11.60
2016,06,14,11,06,11.60
2016,06,14,11,07,11.60
2016,06,14,11,08,11.60
2016,06,14,11,09,11.70
2016,06,14,11,10,11.60
2016,06,14,11,11,11.60
2016,06,14,11,12,11.50
2016,06,14,11,13,11.50
2016,06,14,11,14,11.50
2016,06,14,11,15,11.50
2016,06,14,11,16,11.40
2016,06,14,11,17,11.40
2016,06,14,11,18,11.40
2016,06,14,11,19,11.40
2016,06,14,11,20,11.30
2016,06,14,11,21,11.30
2016,06,14,11,22,11.30
2016,06,14,11,23,11.30
2016,06,14,11,24,11.30
2016,06,14,11,25,11.30
2016,06,14,11,26,11.20
2016,06,14,11,27,11.20
2016,06,14,11,28,11.20
2016,06,14,11,29,11.20
2016,06,14,11,30,11.20
2016,06,14,11,31,11.20
2016,06,14,11,32,11.20
2016,06,14,11,33,11.20
2016,06,14,11,34,11.20
2016,06,14,11,35,11.20
2016,06,14,11,36,11.20
2016,06,14,11,37,11.20
2016,06,14,11,38,11.30
2016,06,14,11,39,11.30
2016,06,14,11,40,11.30
2016,06,14,11,41,11.30
2016,06,14,11,42,11.40
2016,06,14,11,43,11.50
2016,06,14,11,44,11.50
2016,06,14,11,45,11.60
2016,06,14,11,46,11.70
2016,06,14,11,47,11.80
2016,06,14,11,48,11.80
2016,06,14,11,49,11.80
2016,06,14,11,50,11.80
2016,06,14,11,51,11.80
2016,06,14,11,52,11.90
2016,06,14,11,53,11.90
2016,06,14,11,54,11.80
2016,06,14,11,55,11.80
2016,06,14,11,56,11.70
2016,06,14,11,57,11.70
2016,06,14,11,58,11.70
2016,06,14,11,59,11.70
2016,06,14,12,00,11.70
2016,06,14,12,01,11.70
2016,06,14,12,02,11.70
2016,06,14,12,03,11.70
2016,06,14,12,04,11.70
2016,06,14,12,05,11.70
2016,06,14,12,06,11.60
2016,06,14,12,07,11.60
2016,06,14,12,08,11.60
2016,06,14,12,09,11.60
2016,06,14,12,10,11.60
2016,06,14,12,11,11.60
2016,06,14,12,12,11.50
2016,06,14,12,13,11.50
2016,06,14,12,14,11.50
2016,06,14,12,15,11.40
2016,06,14,12,16,11.40
2016,06,14,12,17,11.40
2016,06,14,12,18,11.40
2016,06,14,12,19,11.40
2016,06,14,12,20,11.40
2016,06,14,12,21,11.30
2016,06,14,12,22,11.30
2016,06,14,12,23,11.30
2016,06,14,12,24,11.30
2016,06,14,12,25,11.30
2016,06,14,12,26,11.30
2016,06,14,12,27,11.30
2016,06,14,12,28,11.30
2016,06,14,12,29,11.30
2016,06,14,12,30,11.30
2016,06,14,12,31,11.30
2016,06,14,12,32,11.30
2016,06,14,12,33,11.30
2016,06,14,12,34,11.30
2016,06,14,12,35,11.30
2016,06,14,12,36,11.30
2016,06,14,12,37,11.30
2016,06,14,12,38,11.40
2016,06,14,12,39,11.40
2016,06,14,12,40,11.40
2016,06,14,12,41,11.50
2016,06,14,12,42,11.60
2016,06,14,12,43,11.70
2016,06,14,12,44,11.80
2016,06,14,12,45,11.80
2016,06,14,12,46,11.80
2016,06,14,12,47,11.70
2016,06,14,12,48,11.60
2016,06,14,12,49,11.60
2016,06,14,12,50,11.60
2016,06,14,12,51,11.60
2016,06,14,12,52,11.60
2016,06,14,12,53,11.60
2016,06,14,12,54,11.70
2016,06,14,12,55,11.70
2016,06,14,12,56,11.80
2016,06,14,12,57,11.80
2016,06,14,12,58,11.80
2016,06,14,12,59,11.80
2016,06,14,13,00,11.70
2016,06,14,13,01,11.70
2016,06,14,13,02,11.60
2016,06,14,13,03,11.50
2016,06,14,13,04,11.40
2016,06,14,13,05,11.40
2016,06,14,13,06,11.40
2016,06,14,13,07,11.50
2016,06,14,13,08,11.50
2016,06,14,13,09,11.50
2016,06,14,13,10,11.50
2016,06,14,13,11,11.40
2016,06,14,13,12,11.40
2016,06,14,13,13,11.40
2016,06,14,13,14,11.40
2016,06,14,13,15,11.40
2016,06,14,13,16,11.30
2016,06,14,13,17,11.30
2016,06,14,13,18,11.20
2016,06,14,13,19,11.10
2016,06,14,13,20,11.10
2016,06,14,13,21,11.00
2016,06,14,13,22,10.90
2016,06,14,13,23,10.90
2016,06,14,13,24,10.80
2016,06,14,13,25,10.80
2016,06,14,13,26,10.80
2016,06,14,13,27,10.80
2016,06,14,13,28,10.80
2016,06,14,13,29,10.80
2016,06,14,13,30,10.80
2016,06,14,13,31,10.80
2016,06,14,13,32,10.80
2016,06,14,13,33,10.80
2016,06,14,13,34,10.80
2016,06,14,13,35,10.80
2016,06,14,13,36,10.80
2016,06,14,13,37,10.80
2016,06,14,13,38,10.80
2016,06,14,13,39,10.80
2016,06,14,13,40,10.80
2016,06,14,13,41,10.80
2016,06,14,13,42,10.80
2016,06,14,13,43,10.80
2016,06,14,13,44,10.80
2016,06,14,13,45,10.80
2016,06,14,13,46,10.80
2016,06,14,13,47,10.90
2016,06,14,13,48,10.90
2016,06,14,13,49,11.00
2016,06,14,13,50,11.10
2016,06,14,13,51,11.20
2016,06,14,13,52,11.20
2016,06,14,13,53,11.20
2016,06,14,13,54,11.20
2016,06,14,13,55,11.20
2016,06,14,13,56,11.30
2016,06,14,13,57,11.30
2016,06,14,13,58,11.30
2016,06,14,13,59,11.40
2016,06,14,14,00,11.40
2016,06,14,14,01,11.40
2016,06,14,14,02,11.40
2016,06,14,14,03,11.50
2016,06,14,14,04,11.50
2016,06,14,14,05,11.50
2016,06,14,14,06,11.50
2016,06,14,14,07,11.50
2016,06,14,14,08,11.50
2016,06,14,14,09,11.50
2016,06,14,14,10,11.50
2016,06,14,14,11,11.50
2016,06,14,14,12,11.50
2016,06,14,14,13,11.60
2016,06,14,14,14,11.60
2016,06,14,14,15,11.60
2016,06,14,14,16,11.70
2016,06,14,14,17,11.70
2016,06,14,14,18,11.80
2016,06,14,14,19,11.80
2016,06,14,14,20,11.80
2016,06,14,14,21,11.80
2016,06,14,14,22,11.80
2016,06,14,14,23,11.80
2016,06,14,14,24,11.80
2016,06,14,14,25,11.80
2016,06,14,14,26,11.80
2016,06,14,14,27,11.80
2016,06,14,14,28,11.80
2016,06,14,14,29,11.80
2016,06,14,14,30,11.80
2016,06,14,14,31,11.80
2016,06,14,14,32,11.80
2016,06,14,14,33,11.80
2016,06,14,14,34,11.80
2016,06,14,14,35,11.80
2016,06,14,14,36,11.80
2016,06,14,14,37,11.90
2016,06,14,14,38,11.90
2016,06,14,14,39,12.00
2016,06,14,14,40,12.10
2016,06,14,14,41,12.10
2016,06,14,14,42,12.20
2016,06,14,14,43,12.20
2016,06,14,14,44,12.20
2016,06,14,14,45,12.20
2016,06,14,14,46,12.30
2016,06,14,14,47,12.30
2016,06,14,14,48,12.30
2016,06,14,14,49,12.30
2016,06,14,14,50,12.20
2016,06,14,14,51,12.20
2016,06,14,14,52,12.20
2016,06,14,14,53,12.20
2016,06,14,14,54,12.20
2016,06,14,14,55,12.20
2016,06,14,14,56,12.30
2016,06,14,14,57,12.30
2016,06,14,14,58,12.30
2016,06,14,14,59,12.40
2016,06,14,15,00,12.40
2016,06,14,15,01,12.50
2016,06,14,15,02,12.50
2016,06,14,15,03,12.60
2016,06,14,15,04,12.70
2016,06,14,15,05,12.70
2016,06,14,15,06,12.70
2016,06,14,15,07,12.80
2016,06,14,15,08,12.90
2016,06,14,15,09,13.00
2016,06,14,15,10,13.10
2016,06,14,15,11,13.20
2016,06,14,15,12,13.20
2016,06,14,15,13,13.10
2016,06,14,15,14,13.10
2016,06,14,15,15,13.10
2016,06,14,15,16,13.00
2016,06,14,15,17,12.90
2016,06,14,15,18,12.90
2016,06,14,15,19,12.80
2016,06,14,15,20,12.90
2016,06,14,15,21,12.90
2016,06,14,15,22,12.90
2016,06,14,15,23,13.00
2016,06,14,15,24,13.10
2016,06,14,15,25,13.20
2016,06,14,15,26,13.30
2016,06,14,15,27,13.40
2016,06,14,15,28,13.40
2016,06,14,15,29,13.50
2016,06,14,15,30,13.60
2016,06,14,15,31,13.60
2016,06,14,15,32,13.80
2016,06,14,15,33,13.80
2016,06,14,15,34,13.80
2016,06,14,15,35,13.80
2016,06,14,15,36,13.70
2016,06,14,15,37,13.60
2016,06,14,15,38,13.60
2016,06,14,15,39,13.60
2016,06,14,15,40,13.60
2016,06,14,15,41,13.60
2016,06,14,15,42,13.50
2016,06,14,15,43,13.40
2016,06,14,15,44,13.30
2016,06,14,15,45,13.30
2016,06,14,15,46,13.30
2016,06,14,15,47,13.30
2016,06,14,15,48,13.30
2016,06,14,15,49,13.20
2016,06,14,15,50,13.10
2016,06,14,15,51,13.00
2016,06,14,15,52,12.90
2016,06,14,15,53,12.90
2016,06,14,15,54,12.90
2016,06,14,15,55,12.80
2016,06,14,15,56,12.70
2016,06,14,15,57,12.70
2016,06,14,15,58,12.70
2016,06,14,15,59,12.70
2016,06,14,16,00,12.70
2016,06,14,16,01,12.70
2016,06,14,16,02,12.70
2016,06,14,16,03,12.70
2016,06,14,16,04,12.80
2016,06,14,16,05,12.80
2016,06,14,16,06,12.90
2016,06,14,16,07,13.00
2016,06,14,16,08,13.10
2016,06,14,16,09,13.20
2016,06,14,16,10,13.30
2016,06,14,16,11,13.40
2016,06,14,16,12,13.40
2016,06,14,16,13,13.50
2016,06,14,16,14,13.60
2016,06,14,16,15,13.60
2016,06,14,16,16,13.70
2016,06,14,16,17,13.80
2016,06,14,16,18,13.90
2016,06,14,16,19,14.00
2016,06,14,16,20,14.00
2016,06,14,16,21,13.90
2016,06,14,16,22,13.80
2016,06,14,16,23,13.80
2016,06,14,16,24,13.80
2016,06,14,16,25,13.80
2016,06,14,16,26,13.80
2016,06,14,16,27,13.70
2016,06,14,16,28,13.70
2016,06,14,16,29,13.60
2016,06,14,16,30,13.60
2016,06,14,16,31,13.60
2016,06,14,16,32,13.50
2016,06,14,16,33,13.50
2016,06,14,16,34,13.50
2016,06,14,16,35,13.40
2016,06,14,16,36,13.40
2016,06,14,16,37,13.30
2016,06,14,16,38,13.20
2016,06,14,16,39,13.20
2016,06,14,16,40,13.10
2016,06,14,16,41,13.10
2016,06,14,16,42,13.00
2016,06,14,16,43,12.90
2016,06,14,16,44,12.90
2016,06,14,16,45,12.90
2016,06,14,16,46,12.90
2016,06,14,16,47,12.90
2016,06,14,16,48,12.90
2016,06,14,16,49,13.00
2016,06,14,16,50,13.00
2016,06,14,16,51,13.00
2016,06,14,16,52,13.10
2016,06,14,16,53,13.10
2016,06,14,16,54,13.10
2016,06,14,16,55,13.10
2016,06,14,16,56,13.10
2016,06,14,16,57,13.10
2016,06,14,16,58,13.10
2016,06,14,16,59,13.10
2016,06,14,17,00,13.10
2016,06,14,17,01,13.10
2016,06,14,17,02,13.10
2016,06,14,17,03,13.10
2016,06,14,17,04,13.20
2016,06,14,17,05,13.20
2016,06,14,17,06,13.30
2016,06,14,17,07,13.30
2016,06,14,17,08,13.40
2016,06,14,17,09,13.40
2016,06,14,17,10,13.40
2016,06,14,17,11,13.40
2016,06,14,17,12,13.40
2016,06,14,17,13,13.40
2016,06,14,17,14,13.40
2016,06,14,17,15,13.40
2016,06,14,17,16,13.40
2016,06,14,17,17,13.50
2016,06,14,17,18,13.50
2016,06,14,17,19,13.60
2016,06,14,17,20,13.60
2016,06,14,17,21,13.60
2016,06,14,17,22,13.70
2016,06,14,17,23,13.70
2016,06,14,17,24,13.70
2016,06,14,17,25,13.80
2016,06,14,17,26,13.80
2016,06,14,17,27,13.80
2016,06,14,17,28,13.80
2016,06,14,17,29,13.90
2016,06,14,17,30,13.90
2016,06,14,17,31,13.90
2016,06,14,17,32,13.90
2016,06,14,17,33,13.90
2016,06,14,17,34,13.90
2016,06,14,17,35,13.90
2016,06,14,17,36,14.00
2016,06,14,17,37,14.00
2016,06,14,17,38,14.10